Location: Milton Keynes
(52.0316°N, 0.7531°W)
Time: 21:57:49
(UTC+00:00)

ISS - Pass Details

Date: 29 January 2019
Orbit: 403 x 411 km, 51.6° (Epoch: 16 February)

Event Time Altitude Azimuth Distance (km) Brightness Sun altitude
Rises 17:14:17 0° 231° (SW) 2,325 1.9 -4.9°
Reaches altitude 10° 17:16:26 10° 223° (SW) 1,469 0.3 -5.2°
Maximum altitude 17:19:30 37° 154° (SSE) 661 -2.8 -5.7°
Drops below altitude 10° 17:22:35 10° 86° (E) 1,480 -1.6 -6.1°
Enters shadow 17:23:06 - 83° (E) 1,677 -1.3 -6.2°
